Regional Weather Roundup
Issued by NWS

Home | Current Version | Previous Version | Graphics & Text | Print | Product List | Glossary Off
Versions: 1 2 3 4 5 6 7 8 9 10 11 12 13 14 15 16 17 18 19 20 21 22 23 24 25 26 27 28 29 30 31 32 33 34 35 36 37 38 39 40 41 42 43 44 45 46 47 48 49 50

000
ASUS43 KMKX 010921
RWRWI

WISCONSIN REGIONAL WEATHER ROUNDUP
NATIONAL WEATHER SERVICE MILWAUKEE/SULLIVAN WI
400 AM CDT SAT AUG 01 2015

NOTE: "FAIR" INDICATES FEW OR NO CLOUDS BELOW 12,000 FEET WITH NO
SIGNIFICANT WEATHER AND/OR OBSTRUCTIONS TO VISIBILITY.

WIZ001-002-006>008-014>016-023>028-011000-
NORTHWEST WISCONSIN

CITY           SKY/WX    TMP DP  RH WIND       PRES   REMARKS
SUPERIOR ARPT  CLEAR     57  51  80 W6        29.94S
ASHLAND        CLEAR     57  50  77 W5        29.92S
HAYWARD        CLEAR     50  47  89 SW3       29.96S
SIREN          CLEAR     54  50  87 CALM      29.97S
CUMBERLAND     PTCLDY    54  50  87 CALM      29.98S
RICE LAKE      CLEAR     52  50  93 CALM      29.99S
CHETEK         PTCLDY    54  53  96 CALM      29.97S
LADYSMITH      CLEAR     59  52  78 NW7       29.98S
EAU CLAIRE     CLOUDY    61  55  81 SW5       29.97S
MENOMONIE      MOCLDY    65  57  75 SW3       29.99R
NEW RICHMOND   CLOUDY    61  58  91 CALM      29.99S
OSCEOLA        CLOUDY    61  61 100 CALM      30.01S
$$

WIZ003>005-009-010-017-018-011000-
NORTH CENTRAL WISCONSIN

CITY           SKY/WX    TMP DP  RH WIND       PRES   REMARKS
MANITOWISH WTR   N/A     47  47 100 CALM      29.93S FOG
ARBOR VITAE    CLEAR     57  53  86 CALM      29.93S
WOODRUFF       CLEAR     57  53  86 CALM      29.93S
RHINELANDER    CLEAR     51  49  92 W8        29.94F
EAGLE RIVER    CLEAR     51  51 100 W6        29.92S
LAND O LAKES   CLEAR     49  49  99 CALM      29.93S
PHILLIPS       CLEAR     55  51  87 CALM      29.95S
TOMAHAWK       CLEAR     50  49  94 CALM      29.95S
MEDFORD        CLEAR     56  51  84 W3        29.97S
MERRILL        NOT AVBL
$$

WIZ029-030-035-036-043>047-011000-
CENTRAL WISCONSIN

CITY           SKY/WX    TMP DP  RH WIND       PRES   REMARKS
WAUSAU         CLEAR     61  52  72 NW9       29.94S
MOSINEE        CLEAR     55  52  88 W6        29.96F
MARSHFIELD     CLEAR     58  49  72 W6        29.97S
STEVENS POINT  CLEAR     60  51  70 W3        29.96S
WAUPACA        CLEAR     63  53  69 W6        29.95S
WAUTOMA        CLEAR     56  51  83 W5        29.97S
WISC RAPIDS    CLEAR     57  50  77 W5        29.98S
CAMP DOUGLAS   CLEAR     57  57 100 W6        29.97S
$$

WIZ011>013-019>022-031-037>040-048>050-011000-
NORTHEAST WISCONSIN

CITY           SKY/WX    TMP DP  RH WIND       PRES   REMARKS
ANTIGO         CLEAR     53  52  94 W5        29.95S
SHAWANO        CLEAR     61  55  79 W5        29.92S
OCONTO         CLEAR     57  57 100 W3        29.89S
STURGEON BAY   PTCLDY    61  54  77 W7        29.91S
GREEN BAY      CLEAR     60  55  83 W10       29.92S
MANITOWOC      CLEAR     63  56  78 MISG      29.92S
APPLETON       CLEAR     57  50  77 W9        29.94S
CLINTONVILLE   CLEAR     59  52  77 W7        29.92F
OSHKOSH        CLEAR     62  51  67 W6        29.94S
$$

WIZ032>034-041-042-053>061-011000-
SOUTHWEST WISCONSIN

CITY           SKY/WX    TMP DP  RH WIND       PRES   REMARKS
LA CROSSE      MOCLDY    65  59  81 SE3       29.98F
SPARTA         CLEAR     50  49  94 CALM      29.99S
VIROQUA        MOCLDY    60  56  88 W3        30.01S
BOSCOBEL       CLEAR     58  56  93 SW5       30.01S
PRAIRIE DU CHI CLEAR     60  56  88 CALM      30.00F
PLATTEVILLE    CLEAR     60  57  90 CALM      30.01F
$$

WIZ056-057-062-063-064-067-068-011000-
SOUTH CENTRAL WISCONSIN

CITY           SKY/WX    TMP DP  RH WIND       PRES   REMARKS
REEDSBURG      CLEAR     55  53  93 CALM      29.98F
BARABOO/DELLS  CLEAR     59  51  77 CALM      29.98F
LONE ROCK      CLEAR     54  51  90 CALM      30.00F
MINERAL POINT  CLEAR     61  55  82 W3        30.01F
MADISON        CLEAR     63  53  70 NW5       29.98S
MIDDLETON      CLEAR     58  54  86 CALM      30.00S
WATERTOWN      CLEAR     56  55  98 CALM      29.96F
MONROE         CLEAR     61  55  82 W12       30.00F
JANESVILLE     CLEAR     59  54  82 CALM      29.99S
$$

WIZ051-052-058>065-066-070>072-011000-
SOUTHEAST WISCONSIN

CITY           SKY/WX    TMP DP  RH WIND       PRES   REMARKS
MILWAUKEE      CLEAR     68  50  52 W8        29.95F
WAUKESHA       CLEAR     59  50  72 W6        29.98S
MILWAUKEE/TIMM CLEAR     63  48  59 W6        29.97S
RACINE         CLEAR     63  51  65 W7        29.98S
BURLINGTON     CLEAR     56  50  81 CALM      29.98S
KENOSHA        CLEAR     57  51  80 W5        29.97S
FOND DU LAC    CLEAR     62  52  69 SW7       29.95S
SHEBOYGAN      CLEAR     61  53  75 W7        29.93S
WEST BEND      CLEAR     63  50  63 W7        29.96S
JUNEAU         CLEAR     55  51  89 CALM      29.98S
$$

LSZ147-162-011000-
LAKE SUPERIOR

STATION/POSITION TIME  TEMP    WIND        PRES    WAVE
                       AIR SEA DIR/SP/G            HT/PER
                 (UTC) (F)     (DEG/KT/KT) (MB)    (FT/S)
W MID LAKE BUOY  0850   57 53  280/ 10/ 10 1010.9R   1/ 3
DEVILS ISLAND    0900   60     250/ 14/ 17 1012.5R
PORT WING        0800   64     250/  8/ 12 1013.2S
SAXON HARBOR     0840   61                 1012.2S
$$

LMZ867-665-643>646-011000-
LAKE MICHIGAN

STATION/POSITION TIME  TEMP    WIND        PRES    WAVE
                       AIR SEA DIR/SP/G            HT/PER
                 (UTC) (F)     (DEG/KT/KT) (MB)    (FT/S)
CHAMBERS ISLAND  0800   66     240/  6/ 12 1011.9S
S GREEN BAY BUOY 0900   63 69  270/  8/ 10 1013.6S
N MID LAKE BUOY  0850   67 68  280/ 16/ 17 1010.4F   2/ 3
NORTHPORT PIER   0800   67     280/  6/ 10 1011.5S
SISTER BAY       0844   68     300/ 19/ 20   N/A
ALGOMA LAKESHORE 0812          290/  1/  4   N/A
KEWAUNEE LAKESHO 0800   62     300/  4/  6 1012.0F
SHEBOYGAN LAKESH 0900   66     270/ 13/ 15 1013.4R
PORT WASHINGTON  0800   67     270/  6/ 10 1014.6S
ATWATER BUOY     0900   67 67  260/ 12/ 14 1015.4F
MILWAUKEE LAKESH 0900   69     290/  9/ 13   N/A
KENOSHA   LAKESH 0900   67     270/  9/ 13 1014.2F
$$

TC  - TEMPERATURE IN CELSIUS
VSB - VISIBILITY IN STATUTE MILES
WCI - WIND CHILL INDEX
HX  - HEAT INDEX




USA.gov is the U.S. government's official web portal to all federal, state and local government web resources and services.